www.pogodaiklimat.ru

Погода и климат >> Архив погоды >> Россия >> Хабаровский край >> Солекуль


АРХИВ ПОГОДЫ в Солекуль

Время (UTC), дата Ветер
(напр.,м/с)
 
Видим.   Явления Облачность Т
(С)
Тd
(С)
f
(%)
Тe
(С)
Тes
(С)
Комфортность P
(гПа)
Po
(гПа)
Тmin
(С)
Tmax
(С)
R
(мм)
R24
(мм)
S
(см)
12 9.09 З 3-12
{14}
50 км 10/0
[Ci sp]
+9.8 +4.6 70 +8 +8 1005.0 901.7
15 9.09 З 3
{12}
50 км 8/3 600 м
[Sc Ci]
+7.9 +5.4 84 +5 +5 1006.0 901.9
18 9.09 ЮЗ 4 20 км 10/10 600 м
[Sc]
+7.8 +6.7 93 +4 +4 1006.3 901.7
21 9.09 З 2 20 км слаб. дождь 10/0
[As op]
+7.2 +6.5 95 +5 +5 1006.9 902.5 +7.2 0.0
00 10.09 СЗ 2 20 км {дождь} 10/0 600 м
[As op]
+8.3 +7.5 95 +6 +7 1007.9 903.8 +7.2
03 10.09 З 2
{11}
20 км слаб. дождь 10/0 600 м
[As op]
+9.6 +6.3 80 +8 +10 1009.9 906.0
06 10.09 СЗ 5 20 км {дождь} 10/0 600 м
[As op]
+9.1 +8.4 95 +6 +6 1012.2 907.6
09 10.09 З 4 50 км 3/3 600 м
[Sc]
+9.1 +6.4 83 +6 +6 1013.8 908.9 +10.6 2
12 10.09 СЗ 2 20 км ясно +8.4 +5.4 81 +7 +7 1015.7 910.4
15 10.09 ЮЗ 2 50 км ясно +7.6 +6.8 95 +5 +5 1015.9 910.7
18 10.09 Ю 3 50 км ясно +6.2 +5.5 95 +3 +3 1016.0 910.3
21 10.09 Ю 3 50 км 8/0
[Ac As]
+6.0 +5.3 95 +3 +3 1016.4 910.5 +5.7
00 11.09 штиль 0 50 км 8/3 600 м
[Sc Ac As]
+8.5 +7.5 93 +8 +10 1015.8 910.5
03 11.09 ЮЗ 3 20 км слаб. дождь 10/0 600 м
[As op]
+7.5 +6.8 95 +4 +6 1015.2 910.0
06 11.09 З 1 50 км {дождь} 6/4 600 м
[Cb cap Cc]
+12.2 +5.4 63 +12 +15 1011.7 908.5
09 11.09 СЗ 5 20 км 10/3 600 м
[Cb cap Ac und]
+9.2 +4.8 74 +6 +6 1013.5 909.1 +12.5 0.5
12 11.09 СЗ 4 20 км 10/0 600 м
[As op]
+8.1 +7.3 95 +5 +5 1015.0 910.1
15 11.09 СЗ 4 20 км 9/0
[As op]
+7.4 +6.7 95 +4 +4 1015.7 910.4
18 11.09 СЗ 3 500 м туман ?/? +6.9 +6.5 97 +4 +4 1016.4 910.5
21 11.09 СЗ 3 20 км {туман} 8/8 600 м
[Sc]
+6.9 +6.5 97 +4 +4 1017.9 911.9 +6.8
00 12.09 З 1 20 км {туман} 8/8 600 м
[Cu med, cong]
+8.7 +7.8 94 +8 +9 1017.5 912.2
03 12.09 СЗ 3 <100 м 8/8 600 м
[Cu hum]
+12.9 +5.3 60 +12 +13 1015.6 912.2
09 12.09 СЗ 3 50 км 3/3 600 м
[Cu hum]
+10.9 +6.6 75 +9 +9 1016.0 911.9 +15.3
12 12.09 З 3 50 км 3/0
[Ci fib]
+9.7 +6.0 78 +8 +8 1017.5 912.9
18 12.09 ЮЗ 3 50 км ясно +7.5 +6.4 93 +5 +5 1017.1 911.8
21 12.09 Ю 3 50 км ясно +7.2 +6.1 93 +4 +4 1017.6 912.1 +6.1
00 13.09 ЮЗ 3 50 км 10/0
[Ci]
+10.6 +6.0 73 +9 +13 1016.4 912.2
03 13.09 ЮВ 3 50 км 8/0
[Cs]
+13.2 +6.8 65 +12 +19 1013.2 909.9
09 13.09 Ю 3 50 км 9/0
[As op]
+15.7 +6.1 53 +15 +15 1008.6 906.9 +17.6
15 13.09 Ю 4 20 км 10/0
[As op]
+13.9 +6.4 61 +13 +13 1005.8 903.8
21 13.09 ЮЗ 6-15
{16}
20 км слаб. дождь 10/0
[As op]
+10.5 +9.4 93 +7 +7 1001.9 899.3 +10.1 0.0
00 14.09 З 4-12
{15}
10 км в посл. час дождь 10/8 300 м
[St As op]
+9.5 +8.4 93 +7 +7 1001.9 898.9
06 14.09 ЮЗ 3
{12}
50 км {дождь, туман} 6/6 600 м
[Sc]
+14.5 +7.1 61 +14 +15 1002.8 901.3
12 14.09 З 7-11
{12}
50 км ясно +8.8 +5.4 79 +5 +5 1008.7 904.6
00 15.09 ЮЗ 3 50 км 1/1 600 м
[Cu hum]
+10.7 +5.7 71 +9 +13 1011.3 907.6
00 16.09 З 5
{10}
20 км 10/10 600 м
[Sc]
+10.1 +4.5 68 +7 +7 1007.6 904.1

 

Местоположение метеостанции Солекуль (Хабаровский край, Россия): широта 49.17 долгота 138.00 высота над уровнем моря 911 м.

В архиве по умолчанию представлена погода в Солекуль за последнюю неделю. Архивные данные за месяц целиком и за предыдущие месяцы, начиная с января 2011 года, Вы можете получить, выбрав интересующий диапазон дат из раскрывающегося списка и нажав кнопку "Ввод!".


*Определитесь, кто Вы:
робот инопланетянин человек

Внимание! Время в таблицах - всемирное. Для получения местного времени необходимо прибавить поправку, которая равна 10 ч.

Смотрите также архив погоды в соседних городах и на ближайших метеорологических станциях:

Погода в Мопау (Хабаровский край, Россия) (66 км)
Погода в Тивяку (Хабаровский край, Россия) (97 км)
Погода в Троицком (Хабаровский край, Россия) (109 км)
Погода в Сегжеме (Хабаровский край, Россия) (134 км)
Погода в Тумнине (Хабаровский край, Россия) (154 км)
Погода в Амурске (Хабаровский край, Россия) (160 км)
Погода в Елабуге (Хабаровский край, Россия) (165 км)
Погода в Комсомольске-на-Амуре (Хабаровский край, Россия) (167 км)
Погода в Сукпае (Хабаровский край, Россия) (168 км)
Погода в Советской Гавани (Хабаровский край, Россия) (169 км)

Пояснения к столбцам:

Ветер - указаны скорость ветра в м/с - средняя за 10 мин, порывы в срок и между сроками (в фигурных скобках) и направление, откуда дует ветер: С - северный, СВ - северо-восточный, В - восточный, ЮВ - юго-восточный, Ю - южный, ЮЗ - юго-западный, З - западный, СЗ - северо-западный.
Видимость - горизонтальная дальность видимости в метрах или километрах. При видимости от 1 до 10 км при отсутствии осадков обычно наблюдается дымка, при ухудшении видимости до 1 км и менее - туман. В сухую погоду видимость может ухудшаться дымом, пылью или мглою.
Явления - указаны атмосферные явления, наблюдавшиеся в срок или в последний час перед сроком; фигурными скобками обозначены явления, наблюдавшиеся между сроками (за 1-3 часа до срока); квадратными скобками обозначены град или гололедные отложения с указанием их диаметра в мм.
Облачность - указаны через наклонную черту общая и нижняя облачность в баллах и высота нижней границы облаков в метрах; квадратными скобками обозначены формы облаков: Ci - перистые, Cs - перисто-слоистые, Cc - перисто-кучевые, Ac - высококучевые, As - высокослоистые, Sc - слоисто-кучевые, Ns - слоисто-дождевые, Cu - кучевые, Cb - кучево-дождевые. Подробнее классификацию облаков см. в Атласе облаков (PDF).
T - Температура воздуха - температура, измеренная на высоте 2 м над землей.
Td - Температура точки росы - температура, при понижении до которой содержащийся в воздухе водяной пар достигнет насыщения.
f - Относительная влажность воздуха - влажноcть воздуха, измеренная на высоте 2 м над землей.
Te - Эффективная температура - температура, которую ощущает одетый по сезону человек в тени. Характеристика душности погоды. При расчете учитывается влияние влажности воздуха и скорости ветра на теплоощущения человека.
Tes - Эффективная температура на солнце - температура, которую ощущает человек, с поправкой на солнечный нагрев. Характеристика знойности погоды. Зависит от высоты солнца над горизонтом, облачности и скорости ветра. Ночью, в пасмурную погоду, а также при ветре 12 м/с и более поправка равна нулю.
P - Атмосферное давление - приведенное к уровню моря атмосферное давление.
Po - Атмосферное давление - измеренное на уровне метеостанции атмосферное давление.
Tmin - Минимальная температура - минимум температуры воздуха на высоте 2 м над землей.
Tmax - Максимальная температура - максимум температуры воздуха на высоте 2 м над землей.
R - Количество осадков - Количество выпавших осадков за период времени, мм. При наведении курсора мыши на число - период времени, за который выпало указанное количество осадков.
R24 - Количество осадков - Количество выпавших осадков за 24 часа, мм.
S - Снежный покров - Высота снежного покрова, см. При наведении курсора мыши на число - состояние снежного покрова и степень покрытия местности в баллах.